Location: Zagreb
(45.8000°N, 16.0000°E)
Time: 22:34:27
(UTC+01:00)

Tiros 1 despin weight - Pass Details

Date: 02 February 2020
Orbit: 594 x 642 km, 48.2° (Epoch: 24 February)

Event Time Altitude Azimuth Distance (km) Brightness Sun altitude
Rises 07:47:16 0° 217° (SW) 2,822 ? 3.8°
Reaches altitude 10° 07:49:42 10° 207° (SSW) 1,927 ? 4.2°
Maximum altitude 07:53:38 32° 144° (SE) 1,038 ? 4.8°
Drops below altitude 10° 07:57:37 10° 82° (E) 1,957 ? 5.4°
Sets 08:00:06 0° 72° (ENE) 2,872 ? 5.8°
